KUIPER-00226

导读

KUIPER-00226是亚马逊柯伊伯(Project Kuiper)低轨卫星星座的一颗卫星,于2026年2月12日由法国发射升空。该卫星星座计划部署超3200颗低轨卫星,旨在为全球尤其是偏远未覆盖区域提供高速可靠的卫星宽带互联网服务。卫星配备多波束相控阵天线,支持灵活容量分配,采用Ka频段工作,可实现高速星间链路传输,是全球低轨卫星互联网建设的重要组成部分。

Basic Information
目录编号:
67785
目录名称:
KUIPER-00226
国际标识:
2026-030X
轨道中心:
EARTH
卫星名称:
KUIPER-00226
卫星全名:
KUIPER-00226
卫星状态:
在轨 (已飞行205 天)
发射日期:
2026-02-12 UTC
国别 :
美国 (US)
星等 :
--
Orbit Information
数据来源 国际轨道数据 AOE轨道数据
星历时间 2026-09-05T08:44:01+0800
13小时前
查看轨道信息
2026-09-03T16:00:00+0800
2天前
查看轨道信息
半长轴 7018.779km 7018.752km
偏心率 0.0002898 0.0003014
轨道倾角 51.900° 51.899°
近地点辐角 351.259° 348.222°
升交点赤经 112.435° 119.901°
平近点角 8.832° 345.480°
近地点 638.607km 638.499km
远地点 642.677km 642.731km
周期 97.533分钟 97.533分钟
每日圈数 14.764219 14.764304
Detailed Information
使用方式:
暂无
2D Orbit Map
3D Orbit Map
Orbit Altitude Analysis Chart
Orbit Inclination Analysis Chart
Orbit Comprehensive Analysis Chart
View Comprehensive Chart
Conjunction Data List
Event ID Objects TCA Miss Dist (km) Collision Risk Probability Collision Risk Index (CRI) Action
CDM_260907-180403-815706-778521
2026-09-07T
18:04:57+0000
1.652 km
极远距离
4.084901E-6 低风险 0.47